Sexton Summit, OR

11:59 PM PST on December 09, 2019 (GMT -0800)
Sexton Summit

Weather History for KSXT - November, 2019

Change the Weather History Date:

Saturday, November 16, 2019

  Actual Average Record
Temperature  
Mean Temperature 48 °F -  
Max Temperature 54 °F 43 °F 69 °F (2008)
Min Temperature 42 °F 34 °F 27 °F (2015)
Degree Days  
Heating Degree Days 17    
Moisture  
Dew Point 40 °F    
Average Humidity 78    
Maximum Humidity 97    
Minimum Humidity 43    
Precipitation  
Precipitation 0.00 in - - ()
Sea Level Pressure  
Sea Level Pressure 30.28 in    
Wind  
Wind Speed 4 mph ()    
Max Wind Speed 10 mph    
Max Gust Speed -    
Visibility 6.2 miles    
Events Fog    
Averages and records for this station are not official NWS values.
T = Trace of Precipitation, MM = Missing Value Source: Averaged Metar Reports

Daily Weather History Graph

Daily Weather History Graph

Search for Another Location

Airport or City:

Astronomy

Nov. 16, 2019 Rise Set
Actual Time 7:06 AM PST 4:50 PM PST
Civil Twilight 6:35 AM PST 5:20 PM PST
Nautical Twilight 6:01 AM PST 5:54 PM PST
Astronomical Twilight 5:28 AM PST 6:27 PM PST
Moon 8:26 PM PST (11/16) 11:07 AM PST (11/16)
Length of Visible Light 10h 44m
Length of Day
9h 43m
Waning Gibbous, 81% of the Moon is Illuminated
Nov 16
Waning Gibbous
Nov 19
Last Quarter
Nov 26
New
Dec 3
First Quarter
Dec 11
Full

Hourly Weather History & Observations

Time (PST) Temp. Windchill Dew Point Humidity Pressure Visibility Wind Dir Wind Speed Gust Speed Precip Events Conditions
12:56 AM 45.0 °F - 41.0 °F 86% 30.28 in 10.0 mi Calm Calm - N/A   Clear
1:56 AM 44.1 °F 41.5 °F 41.0 °F 89% 30.27 in 10.0 mi SE 4.6 mph - N/A   Clear
2:43 AM 44.1 °F 39.5 °F 41.0 °F 89% 30.28 in 1.5 mi SE 8.1 mph - N/A   Mostly Cloudy
2:45 AM 44.1 °F 39.5 °F 41.0 °F 89% 30.28 in 0.8 mi SE 8.1 mph - N/A   Mist
2:56 AM 44.1 °F 40.8 °F 42.1 °F 93% 30.27 in 0.2 mi SE 5.8 mph - N/A Fog Fog
4:21 AM 43.0 °F - 41.0 °F 93% 30.28 in 1.5 mi Calm Calm - N/A   Scattered Clouds
4:56 AM 43.0 °F 41.3 °F 41.0 °F 93% 30.28 in 0.2 mi ENE 3.5 mph - N/A Fog Fog
5:56 AM 42.1 °F - 39.9 °F 92% 30.30 in 0.2 mi Calm Calm - N/A Fog Fog
6:56 AM 43.0 °F 40.3 °F 41.0 °F 93% 30.29 in 0.2 mi SE 4.6 mph - N/A Fog Fog
7:08 AM 43.0 °F 41.3 °F 41.0 °F 93% 30.29 in 0.2 mi ESE 3.5 mph - N/A Fog Fog
7:56 AM 43.0 °F 37.7 °F 41.0 °F 93% 30.29 in 0.2 mi ESE 9.2 mph - N/A Fog Fog
8:56 AM 44.1 °F 40.8 °F 42.1 °F 93% 30.30 in 0.2 mi ESE 5.8 mph - N/A Fog Fog
10:04 AM 45.0 °F 43.5 °F 44.1 °F 97% 30.30 in 2.0 mi SSE 3.5 mph - N/A   Mostly Cloudy
10:11 AM 45.0 °F 41.8 °F 43.0 °F 93% 30.30 in 10.0 mi ESE 5.8 mph - N/A   Scattered Clouds
10:26 AM 44.6 °F 42.2 °F 42.8 °F 93% 30.30 in 7.0 mi Variable 4.6 mph - N/A   Mostly Cloudy
10:56 AM 46.9 °F - 44.1 °F 90% 30.29 in 10.0 mi SE 6.9 mph - N/A   Scattered Clouds
11:56 AM 50.0 °F - 43.0 °F 77% 30.27 in 10.0 mi ESE 4.6 mph - N/A   Clear
12:56 PM 52.0 °F - 43.0 °F 71% 30.25 in 10.0 mi SE 5.8 mph - N/A   Clear
1:56 PM 53.1 °F - 43.0 °F 69% 30.25 in 10.0 mi Variable 3.5 mph - N/A   Clear
2:56 PM 54.0 °F - 43.0 °F 66% 30.25 in 10.0 mi SE 5.8 mph - N/A   Clear
3:56 PM 52.0 °F - 39.9 °F 63% 30.25 in 10.0 mi SE 5.8 mph - N/A   Clear
4:56 PM 51.1 °F - 37.9 °F 61% 30.27 in 10.0 mi ESE 6.9 mph - N/A   Clear
5:56 PM 53.1 °F - 30.9 °F 43% 30.27 in 10.0 mi Calm Calm - N/A   Clear
6:56 PM 53.1 °F - 32.0 °F 45% 30.28 in 10.0 mi ESE 4.6 mph - N/A   Clear
8:56 PM 52.0 °F - 32.0 °F 47% 30.27 in 10.0 mi ESE 5.8 mph - N/A   Clear
9:56 PM 51.1 °F - 33.1 °F 50% 30.28 in 10.0 mi ESE 5.8 mph - N/A   Clear
10:56 PM 51.1 °F - 37.0 °F 59% 30.26 in 10.0 mi ESE 10.4 mph - N/A   Clear
11:56 PM 51.1 °F - 37.0 °F 59% 30.24 in 10.0 mi ESE 9.2 mph - N/A   Clear